Time,TemperatureF,DewpointF,PressureIn,WindDirection,WindDirectionDegrees,WindSpeedMPH,WindSpeedGustMPH,Humidity,HourlyPrecipIn,Conditions,Clouds,dailyrainin,SoftwareType,DateUTC
2013-05-08 00:02:00,52.0,-99.9,-100.00,ESE,104,4.0,4.0,-999,-99.99,,,-99.99,,2013-05-08 04:02:00,
2013-05-08 00:13:00,52.0,-99.9,-100.00,ESE,104,4.0,4.0,-999,-99.99,,,-99.99,,2013-05-08 04:13:00,
2013-05-08 00:23:00,52.0,-99.9,-100.00,ESE,104,4.0,4.0,-999,-99.99,,,-99.99,,2013-05-08 04:23:00,
2013-05-08 00:33:00,52.0,-99.9,-100.00,ESE,104,4.0,4.0,-999,-99.99,,,-99.99,,2013-05-08 04:33:00,
2013-05-08 00:40:00,51.0,-99.9,-100.00,SE,124,5.0,7.0,-999,-99.99,,,-99.99,,2013-05-08 04:40:00,
2013-05-08 01:03:00,51.0,-99.9,-100.00,SE,124,5.0,7.0,-999,-99.99,,,-99.99,,2013-05-08 05:03:00,
2013-05-08 01:12:00,51.0,-99.9,-100.00,SE,124,5.0,7.0,-999,-99.99,,,-99.99,,2013-05-08 05:12:00,
2013-05-08 01:23:00,51.0,-99.9,-100.00,SE,124,5.0,7.0,-999,-99.99,,,-99.99,,2013-05-08 05:23:00,
2013-05-08 01:32:00,51.0,-99.9,-100.00,SE,124,5.0,7.0,-999,-99.99,,,-99.99,,2013-05-08 05:32:00,
2013-05-08 01:40:00,50.0,-99.9,-100.00,NW,309,4.0,7.0,-999,-99.99,,,-99.99,,2013-05-08 05:40:00,
2013-05-08 02:02:00,50.0,-99.9,-100.00,NW,309,4.0,7.0,-999,-99.99,,,-99.99,,2013-05-08 06:02:00,
2013-05-08 02:12:00,50.0,-99.9,-100.00,NW,309,4.0,7.0,-999,-99.99,,,-99.99,,2013-05-08 06:12:00,
2013-05-08 02:22:00,50.0,-99.9,-100.00,NW,309,4.0,7.0,-999,-99.99,,,-99.99,,2013-05-08 06:22:00,
2013-05-08 02:32:00,50.0,-99.9,-100.00,NW,309,4.0,7.0,-999,-99.99,,,-99.99,,2013-05-08 06:32:00,
2013-05-08 02:40:00,48.0,-99.9,-100.00,WNW,288,3.0,4.0,-999,-99.99,,,-99.99,,2013-05-08 06:40:00,
2013-05-08 03:02:00,48.0,-99.9,-100.00,WNW,288,3.0,4.0,-999,-99.99,,,-99.99,,2013-05-08 07:02:00,
2013-05-08 03:11:00,48.0,-99.9,-100.00,WNW,288,3.0,4.0,-999,-99.99,,,-99.99,,2013-05-08 07:11:00,
2013-05-08 03:22:00,48.0,-99.9,-100.00,WNW,288,3.0,4.0,-999,-99.99,,,-99.99,,2013-05-08 07:22:00,
2013-05-08 03:32:00,48.0,-99.9,-100.00,WNW,288,3.0,4.0,-999,-99.99,,,-99.99,,2013-05-08 07:32:00,
2013-05-08 03:40:00,47.0,-99.9,-100.00,North,1,3.0,3.0,-999,-99.99,,,-99.99,,2013-05-08 07:40:00,
2013-05-08 04:02:00,47.0,-99.9,-100.00,North,1,3.0,3.0,-999,-99.99,,,-99.99,,2013-05-08 08:02:00,
2013-05-08 04:12:00,47.0,-99.9,-100.00,North,1,3.0,3.0,-999,-99.99,,,-99.99,,2013-05-08 08:12:00,
2013-05-08 04:22:00,47.0,-99.9,-100.00,North,1,3.0,3.0,-999,-99.99,,,-99.99,,2013-05-08 08:22:00,
2013-05-08 04:32:00,47.0,-99.9,-100.00,North,1,3.0,3.0,-999,-99.99,,,-99.99,,2013-05-08 08:32:00,
2013-05-08 04:40:00,46.0,-99.9,-100.00,North,-999,0.0,0.0,-999,-99.99,,,-99.99,,2013-05-08 08:40:00,
2013-05-08 05:02:00,46.0,-99.9,-100.00,North,-999,0.0,0.0,-999,-99.99,,,-99.99,,2013-05-08 09:02:00,
2013-05-08 05:11:00,46.0,-99.9,-100.00,North,-999,0.0,0.0,-999,-99.99,,,-99.99,,2013-05-08 09:11:00,
2013-05-08 05:22:00,46.0,-99.9,-100.00,North,-999,0.0,0.0,-999,-99.99,,,-99.99,,2013-05-08 09:22:00,
2013-05-08 05:33:00,46.0,-99.9,-100.00,North,-999,0.0,0.0,-999,-99.99,,,-99.99,,2013-05-08 09:33:00,
2013-05-08 05:40:00,45.0,-99.9,-100.00,NNW,332,2.0,2.0,-999,-99.99,,,-99.99,,2013-05-08 09:40:00,
2013-05-08 06:03:00,45.0,-99.9,-100.00,NNW,332,2.0,2.0,-999,-99.99,,,-99.99,,2013-05-08 10:03:00,
2013-05-08 06:12:00,45.0,-99.9,-100.00,NNW,332,2.0,2.0,-999,-99.99,,,-99.99,,2013-05-08 10:12:00,
2013-05-08 06:23:00,45.0,-99.9,-100.00,NNW,332,2.0,2.0,-999,-99.99,,,-99.99,,2013-05-08 10:23:00,
2013-05-08 06:33:00,45.0,-99.9,-100.00,NNW,332,2.0,2.0,-999,-99.99,,,-99.99,,2013-05-08 10:33:00,
2013-05-08 06:40:00,42.0,-99.9,-100.00,ENE,67,2.0,4.0,-999,-99.99,,,-99.99,,2013-05-08 10:40:00,
2013-05-08 07:02:00,42.0,-99.9,-100.00,ENE,67,2.0,4.0,-999,-99.99,,,-99.99,,2013-05-08 11:02:00,
2013-05-08 07:12:00,42.0,-99.9,-100.00,ENE,67,2.0,4.0,-999,-99.99,,,-99.99,,2013-05-08 11:12:00,
2013-05-08 07:22:00,42.0,-99.9,-100.00,ENE,67,2.0,4.0,-999,-99.99,,,-99.99,,2013-05-08 11:22:00,
2013-05-08 07:33:00,42.0,-99.9,-100.00,ENE,67,2.0,4.0,-999,-99.99,,,-99.99,,2013-05-08 11:33:00,
2013-05-08 07:40:00,50.0,-99.9,-100.00,North,-999,0.0,0.0,-999,-99.99,,,-99.99,,2013-05-08 11:40:00,
2013-05-08 08:02:00,50.0,-99.9,-100.00,North,-999,0.0,0.0,-999,-99.99,,,-99.99,,2013-05-08 12:02:00,
2013-05-08 08:12:00,50.0,-99.9,-100.00,North,-999,0.0,0.0,-999,-99.99,,,-99.99,,2013-05-08 12:12:00,
2013-05-08 08:22:00,50.0,-99.9,-100.00,North,-999,0.0,0.0,-999,-99.99,,,-99.99,,2013-05-08 12:22:00,
2013-05-08 08:32:00,50.0,-99.9,-100.00,North,-999,0.0,0.0,-999,-99.99,,,-99.99,,2013-05-08 12:32:00,
2013-05-08 08:40:00,51.0,-99.9,-100.00,North,-999,0.0,1.0,-999,-99.99,,,-99.99,,2013-05-08 12:40:00,
2013-05-08 09:02:00,51.0,-99.9,-100.00,North,-999,0.0,1.0,-999,-99.99,,,-99.99,,2013-05-08 13:02:00,
2013-05-08 09:12:00,51.0,-99.9,-100.00,North,-999,0.0,1.0,-999,-99.99,,,-99.99,,2013-05-08 13:12:00,
2013-05-08 09:22:00,51.0,-99.9,-100.00,North,-999,0.0,1.0,-999,-99.99,,,-99.99,,2013-05-08 13:22:00,
2013-05-08 09:32:00,51.0,-99.9,-100.00,North,-999,0.0,1.0,-999,-99.99,,,-99.99,,2013-05-08 13:32:00,
2013-05-08 09:40:00,54.0,-99.9,-100.00,North,-999,0.0,0.0,-999,-99.99,,,-99.99,,2013-05-08 13:40:00,
2013-05-08 10:02:00,54.0,-99.9,-100.00,North,-999,0.0,0.0,-999,-99.99,,,-99.99,,2013-05-08 14:02:00,
2013-05-08 10:12:00,54.0,-99.9,-100.00,North,-999,0.0,0.0,-999,-99.99,,,-99.99,,2013-05-08 14:12:00,
2013-05-08 10:22:00,54.0,-99.9,-100.00,North,-999,0.0,0.0,-999,-99.99,,,-99.99,,2013-05-08 14:22:00,
2013-05-08 10:32:00,54.0,-99.9,-100.00,North,-999,0.0,0.0,-999,-99.99,,,-99.99,,2013-05-08 14:32:00,
2013-05-08 10:40:00,52.0,-99.9,-100.00,WNW,298,5.0,5.0,-999,-99.99,,,-99.99,,2013-05-08 14:40:00,
2013-05-08 11:02:00,52.0,-99.9,-100.00,WNW,298,5.0,5.0,-999,-99.99,,,-99.99,,2013-05-08 15:02:00,
2013-05-08 11:11:00,52.0,-99.9,-100.00,WNW,298,5.0,5.0,-999,-99.99,,,-99.99,,2013-05-08 15:11:00,
2013-05-08 11:22:00,52.0,-99.9,-100.00,WNW,298,5.0,5.0,-999,-99.99,,,-99.99,,2013-05-08 15:22:00,
2013-05-08 11:33:00,52.0,-99.9,-100.00,WNW,298,5.0,5.0,-999,-99.99,,,-99.99,,2013-05-08 15:33:00,
2013-05-08 11:40:00,51.0,-99.9,-100.00,SE,140,3.0,6.0,-999,-99.99,,,-99.99,,2013-05-08 15:40:00,
2013-05-08 12:03:00,51.0,-99.9,-100.00,SE,140,3.0,6.0,-999,-99.99,,,-99.99,,2013-05-08 16:03:00,
2013-05-08 12:13:00,51.0,-99.9,-100.00,SE,140,3.0,6.0,-999,-99.99,,,-99.99,,2013-05-08 16:13:00,
2013-05-08 12:23:00,51.0,-99.9,-100.00,SE,140,3.0,6.0,-999,-99.99,,,-99.99,,2013-05-08 16:23:00,
2013-05-08 12:33:00,51.0,-99.9,-100.00,SE,140,3.0,6.0,-999,-99.99,,,-99.99,,2013-05-08 16:33:00,
2013-05-08 12:40:00,52.0,-99.9,-100.00,ESE,119,4.0,7.0,-999,-99.99,,,-99.99,,2013-05-08 16:40:00,
2013-05-08 13:02:00,52.0,-99.9,-100.00,ESE,119,4.0,7.0,-999,-99.99,,,-99.99,,2013-05-08 17:02:00,
2013-05-08 13:12:00,52.0,-99.9,-100.00,ESE,119,4.0,7.0,-999,-99.99,,,-99.99,,2013-05-08 17:12:00,
2013-05-08 13:22:00,52.0,-99.9,-100.00,ESE,119,4.0,7.0,-999,-99.99,,,-99.99,,2013-05-08 17:22:00,
2013-05-08 13:32:00,52.0,-99.9,-100.00,ESE,119,4.0,7.0,-999,-99.99,,,-99.99,,2013-05-08 17:32:00,
2013-05-08 13:40:00,56.0,-99.9,-100.00,North,-999,0.0,2.0,-999,-99.99,,,-99.99,,2013-05-08 17:40:00,
2013-05-08 14:02:00,56.0,-99.9,-100.00,North,-999,0.0,2.0,-999,-99.99,,,-99.99,,2013-05-08 18:02:00,
2013-05-08 14:12:00,56.0,-99.9,-100.00,North,-999,0.0,2.0,-999,-99.99,,,-99.99,,2013-05-08 18:12:00,
2013-05-08 14:22:00,56.0,-99.9,-100.00,North,-999,0.0,2.0,-999,-99.99,,,-99.99,,2013-05-08 18:22:00,
2013-05-08 14:32:00,56.0,-99.9,-100.00,North,-999,0.0,2.0,-999,-99.99,,,-99.99,,2013-05-08 18:32:00,
2013-05-08 14:40:00,58.0,-99.9,-100.00,North,-999,0.0,0.0,-999,-99.99,,,-99.99,,2013-05-08 18:40:00,
2013-05-08 15:02:00,58.0,-99.9,-100.00,North,-999,0.0,0.0,-999,-99.99,,,-99.99,,2013-05-08 19:02:00,
2013-05-08 15:11:00,58.0,-99.9,-100.00,North,-999,0.0,0.0,-999,-99.99,,,-99.99,,2013-05-08 19:11:00,
2013-05-08 15:22:00,58.0,-99.9,-100.00,North,-999,0.0,0.0,-999,-99.99,,,-99.99,,2013-05-08 19:22:00,
2013-05-08 15:32:00,58.0,-99.9,-100.00,North,-999,0.0,0.0,-999,-99.99,,,-99.99,,2013-05-08 19:32:00,
2013-05-08 15:40:00,56.0,-99.9,-100.00,South,188,1.0,5.0,-999,-99.99,,,-99.99,,2013-05-08 19:40:00,
2013-05-08 16:02:00,56.0,-99.9,-100.00,South,188,1.0,5.0,-999,-99.99,,,-99.99,,2013-05-08 20:02:00,
2013-05-08 16:12:00,56.0,-99.9,-100.00,South,188,1.0,5.0,-999,-99.99,,,-99.99,,2013-05-08 20:12:00,
2013-05-08 16:22:00,56.0,-99.9,-100.00,South,188,1.0,5.0,-999,-99.99,,,-99.99,,2013-05-08 20:22:00,
2013-05-08 16:32:00,56.0,-99.9,-100.00,South,188,1.0,5.0,-999,-99.99,,,-99.99,,2013-05-08 20:32:00,
2013-05-08 16:40:00,55.0,-99.9,-100.00,South,188,5.0,6.0,-999,-99.99,,,-99.99,,2013-05-08 20:40:00,
2013-05-08 17:02:00,55.0,-99.9,-100.00,South,188,5.0,6.0,-999,-99.99,,,-99.99,,2013-05-08 21:02:00,
2013-05-08 17:12:00,55.0,-99.9,-100.00,South,188,5.0,6.0,-999,-99.99,,,-99.99,,2013-05-08 21:12:00,
2013-05-08 17:22:00,55.0,-99.9,-100.00,South,188,5.0,6.0,-999,-99.99,,,-99.99,,2013-05-08 21:22:00,
2013-05-08 17:33:00,55.0,-99.9,-100.00,South,188,5.0,6.0,-999,-99.99,,,-99.99,,2013-05-08 21:33:00,
2013-05-08 17:40:00,60.0,-99.9,-100.00,North,-999,0.0,4.0,-999,-99.99,,,-99.99,,2013-05-08 21:40:00,
2013-05-08 18:03:00,60.0,-99.9,-100.00,North,-999,0.0,4.0,-999,-99.99,,,-99.99,,2013-05-08 22:03:00,
2013-05-08 18:13:00,60.0,-99.9,-100.00,North,-999,0.0,4.0,-999,-99.99,,,-99.99,,2013-05-08 22:13:00,
2013-05-08 18:23:00,60.0,-99.9,-100.00,North,-999,0.0,4.0,-999,-99.99,,,-99.99,,2013-05-08 22:23:00,
2013-05-08 18:33:00,60.0,-99.9,-100.00,North,-999,0.0,4.0,-999,-99.99,,,-99.99,,2013-05-08 22:33:00,
2013-05-08 18:40:00,60.0,-99.9,-100.00,SSW,213,0.0,3.0,-999,-99.99,,,-99.99,,2013-05-08 22:40:00,
2013-05-08 19:02:00,60.0,-99.9,-100.00,SSW,213,0.0,3.0,-999,-99.99,,,-99.99,,2013-05-08 23:02:00,
2013-05-08 19:12:00,60.0,-99.9,-100.00,SSW,213,0.0,3.0,-999,-99.99,,,-99.99,,2013-05-08 23:12:00,
2013-05-08 19:22:00,60.0,-99.9,-100.00,SSW,213,0.0,3.0,-999,-99.99,,,-99.99,,2013-05-08 23:22:00,
2013-05-08 19:33:00,60.0,-99.9,-100.00,SSW,213,0.0,3.0,-999,-99.99,,,-99.99,,2013-05-08 23:33:00,
2013-05-08 19:40:00,59.0,-99.9,-100.00,SW,215,0.0,4.0,-999,-99.99,,,-99.99,,2013-05-08 23:40:00,
2013-05-08 20:02:00,59.0,-99.9,-100.00,SW,215,0.0,4.0,-999,-99.99,,,-99.99,,2013-05-09 00:02:00,
2013-05-08 20:12:00,59.0,-99.9,-100.00,SW,215,0.0,4.0,-999,-99.99,,,-99.99,,2013-05-09 00:12:00,
2013-05-08 20:22:00,59.0,-99.9,-100.00,SW,215,0.0,4.0,-999,-99.99,,,-99.99,,2013-05-09 00:22:00,
2013-05-08 20:32:00,59.0,-99.9,-100.00,SW,215,0.0,4.0,-999,-99.99,,,-99.99,,2013-05-09 00:32:00,
2013-05-08 20:40:00,56.0,-99.9,-100.00,South,184,3.0,3.0,-999,-99.99,,,-99.99,,2013-05-09 00:40:00,
2013-05-08 21:02:00,56.0,-99.9,-100.00,South,184,3.0,3.0,-999,-99.99,,,-99.99,,2013-05-09 01:02:00,
2013-05-08 21:12:00,56.0,-99.9,-100.00,South,184,3.0,3.0,-999,-99.99,,,-99.99,,2013-05-09 01:12:00,
2013-05-08 21:22:00,56.0,-99.9,-100.00,South,184,3.0,3.0,-999,-99.99,,,-99.99,,2013-05-09 01:22:00,
2013-05-08 21:33:00,56.0,-99.9,-100.00,South,184,3.0,3.0,-999,-99.99,,,-99.99,,2013-05-09 01:33:00,
2013-05-08 21:40:00,56.0,-99.9,-100.00,North,-999,0.0,0.0,-999,-99.99,,,-99.99,,2013-05-09 01:40:00,
2013-05-08 22:02:00,56.0,-99.9,-100.00,North,-999,0.0,0.0,-999,-99.99,,,-99.99,,2013-05-09 02:02:00,
2013-05-08 22:12:00,56.0,-99.9,-100.00,North,-999,0.0,0.0,-999,-99.99,,,-99.99,,2013-05-09 02:12:00,
2013-05-08 22:22:00,56.0,-99.9,-100.00,North,-999,0.0,0.0,-999,-99.99,,,-99.99,,2013-05-09 02:22:00,
2013-05-08 22:33:00,56.0,-99.9,-100.00,North,-999,0.0,0.0,-999,-99.99,,,-99.99,,2013-05-09 02:33:00,
2013-05-08 22:40:00,54.0,-99.9,-100.00,North,-999,0.0,0.0,-999,-99.99,,,-99.99,,2013-05-09 02:40:00,
2013-05-08 23:02:00,54.0,-99.9,-100.00,North,-999,0.0,0.0,-999,-99.99,,,-99.99,,2013-05-09 03:02:00,
2013-05-08 23:11:00,54.0,-99.9,-100.00,North,-999,0.0,0.0,-999,-99.99,,,-99.99,,2013-05-09 03:11:00,
2013-05-08 23:22:00,54.0,-99.9,-100.00,North,-999,0.0,0.0,-999,-99.99,,,-99.99,,2013-05-09 03:22:00,
2013-05-08 23:33:00,54.0,-99.9,-100.00,North,-999,0.0,0.0,-999,-99.99,,,-99.99,,2013-05-09 03:33:00,
2013-05-08 23:40:00,55.0,-99.9,-100.00,North,-999,0.0,0.0,-999,-99.99,,,-99.99,,2013-05-09 03:40:00,